Location: Kosice
(48.7167°N, 21.2500°E)
Time: 00:19:05
(UTC+01:00)

ISS - Pass Details

Date: 27 January 2021
Orbit: 417 x 422 km, 51.6° (Epoch: 06 March)

Event Time Altitude Azimuth Distance (km) Brightness Sun altitude
Rises 19:36:50 0° 289° (WNW) 2,377 1.2 -31.5°
Reaches altitude 10° 19:38:57 10° 291° (WNW) 1,512 -0.1 -31.8°
Enters shadow 19:39:07 11° 292° (WNW) 1,442 -0.2 -31.9°
